Tracking 30466 objects as of 17-May-2025
HD Live streaming from Space Station
objects crossing your sky now

THORAD AGENA D DEB

Track THORAD AGENA D DEB now!
10-day predictions


NORAD ID: 4855
Int'l Code: 1970-025EK
Perigee: 979.4 km
Apogee: 1,003.8 km
Inclination: 99.9 °
Period: 104.8 minutes
Semi major axis: 7362 km
RCS: 0.055 m2 (small)
Launch date: April 8, 1970
Source: United States (US)
Launch site: AIR FORCE WESTERN TEST RANGE (AFWTR)

Note: This is SATELLITE DEBRIS
Your satellite tracking list
Your tracking list is empty




NASA's NSSDC Master Catalog

Two Line Element Set (TLE):
1 04855U 70025EK  25136.81915353  .00000653  00000-0  74349-3 0  9992
2 04855  99.9226  69.3960 0016564   0.4523  66.4691 13.74216684742524
Source of the keplerian elements: AFSPC